Weather History for Dickinson, ND

Change the Weather History Date:

Monday, December 12, 2011

  Actual Average Record
Temperature  
Mean Temperature 20 °F 18 °F  
Max Temperature 21 °F 29 °F 61 °F (2014)
Min Temperature 18 °F 8 °F -24 °F (1922)
Degree Days  
Heating Degree Days 45 47  
Month to date heating degree days 554 540  
Since 1 July heating degree days 2312 2617  
Cooling Degree Days 0 0  
Month to date cooling degree days 0 0  
Year to date cooling degree days 358 419  
Moisture  
Dew Point 18 °F    
Average Humidity 92    
Maximum Humidity 92    
Minimum Humidity 91    
Precipitation  
Precipitation T in 0.01 in 0.31 in (1968)
Month to date precipitation 0.01 0.09  
Year to date precipitation 17.37 15.62  
Sea Level Pressure  
Sea Level Pressure 30.21 in    
Wind  
Wind Speed 9 mph (ENE)    
Max Wind Speed 17 mph    
Max Gust Speed 20 mph    
Visibility 2 miles    
Events Fog , Snow    
T = Trace of Precipitation, MM = Missing Value Source: NWS Daily Summary

Daily Weather History Graph

Daily Weather History Graph

Search for Another Location

Airport:

Trip Planner

Search our weather history database for the weather conditions in past years. The results will help you decide how hot, cold, wet, or windy it might be!

Date:

Astronomy

Dec. 12, 2011 Rise Set
Actual Time 7:26 AM MST 4:02 PM MST
Civil Twilight 6:51 AM MST 4:37 PM MST
Nautical Twilight 6:13 AM MST 5:16 PM MST
Astronomical Twilight 5:36 AM MST 5:53 PM MST
Moon 6:19 PM MST (12/12) 8:57 AM MST (12/12)
Length of Visible Light 9h 46m
Length of Day
8h 36m
Waning Gibbous, 95% of the Moon is Illuminated
Dec 12
Waning Gibbous
Dec 17
Last Quarter
Dec 24
New
Dec 31
First Quarter
Jan 9
Full

Hourly Weather History & Observations

Time (MST) Temp. Windchill Dew Point Humidity Pressure Visibility Wind Dir Wind Speed Gust Speed Precip Events Conditions
12:40 AM 19.4 °F 12.8 °F 15.8 °F 86% 30.05 in 7.0 mi NNE 4.6 mph - N/A   Scattered Clouds
12:48 AM 17.6 °F 9.3 °F 15.8 °F 93% 30.06 in 6.0 mi NNE 5.8 mph - N/A   Mostly Cloudy
12:56 AM 19.0 °F 11.1 °F 17.1 °F 92% 30.14 in 6.0 mi NE 5.8 mph - N/A   Mostly Cloudy
1:56 AM 19.9 °F 6.7 °F 18.0 °F 92% 30.17 in 5.0 mi ENE 13.8 mph - N/A   Overcast
2:05 AM 19.4 °F 7.2 °F 17.6 °F 93% 30.07 in 5.0 mi ENE 11.5 mph - N/A   Overcast
2:29 AM 19.4 °F 10.4 °F 17.6 °F 93% 30.08 in 2.0 mi ENE 6.9 mph - N/A   Overcast
2:56 AM 19.0 °F 10.0 °F 18.0 °F 96% 30.19 in 2.0 mi ENE 6.9 mph - N/A   Overcast
3:15 AM 19.4 °F 9.5 °F 17.6 °F 93% 30.10 in 1.8 mi ENE 8.1 mph - N/A   Overcast
3:24 AM 19.4 °F 8.6 °F 17.6 °F 93% 30.10 in 2.0 mi ENE 9.2 mph - N/A   Overcast
4:56 AM 19.0 °F 6.8 °F 17.1 °F 92% 30.22 in 0.8 mi NE 11.5 mph - N/A   Overcast
5:56 AM 19.0 °F 8.2 °F 17.1 °F 92% 30.25 in 0.5 mi NE 9.2 mph - N/A Fog Light Freezing Fog
6:10 AM 19.4 °F 9.5 °F 17.6 °F 93% 30.14 in 1.0 mi NE 8.1 mph - N/A   Overcast
6:44 AM 19.4 °F 10.4 °F 17.6 °F 93% 30.15 in 2.0 mi NE 6.9 mph - N/A   Overcast
6:56 AM 19.9 °F 11.1 °F 17.1 °F 89% 30.27 in 2.0 mi NE 6.9 mph - N/A   Overcast
7:08 AM 19.4 °F 11.5 °F 17.6 °F 93% 30.17 in 1.5 mi NE 5.8 mph - N/A   Overcast
7:22 AM 19.4 °F 11.5 °F 17.6 °F 93% 30.17 in 2.0 mi NE 5.8 mph - N/A   Overcast
7:44 AM 19.4 °F 10.4 °F 17.6 °F 93% 30.17 in 1.5 mi ENE 6.9 mph - N/A   Overcast
8:56 AM 19.0 °F 8.2 °F 17.1 °F 92% 30.32 in 1.2 mi East 9.2 mph - N/A   Overcast
9:07 AM 19.4 °F 11.5 °F 17.6 °F 93% 30.20 in 0.8 mi ENE 5.8 mph - N/A   Overcast
9:14 AM 19.4 °F 12.8 °F 17.6 °F 93% 30.20 in 1.2 mi ENE 4.6 mph - N/A   Overcast
9:32 AM 19.4 °F 10.4 °F 17.6 °F 93% 30.21 in 0.8 mi NE 6.9 mph - N/A   Overcast
9:39 AM 19.4 °F 11.5 °F 17.6 °F 93% 30.22 in 1.0 mi ENE 5.8 mph - N/A   Overcast
9:51 AM 19.4 °F 10.4 °F 17.6 °F 93% 30.22 in 0.8 mi NE 6.9 mph - N/A   Overcast
9:56 AM 19.9 °F 11.1 °F 17.1 °F 89% 30.34 in 0.5 mi NE 6.9 mph - N/A Fog Light Freezing Fog
10:19 AM 19.4 °F 9.5 °F 17.6 °F 93% 30.22 in 0.2 mi NE 8.1 mph - N/A Fog Light Freezing Fog
10:56 AM 19.9 °F 11.1 °F 18.0 °F 92% 30.33 in 0.2 mi NE 6.9 mph - N/A Fog Light Freezing Fog
11:05 AM 19.4 °F 10.4 °F 17.6 °F 93% 30.21 in 0.5 mi ENE 6.9 mph - N/A Fog Light Freezing Fog
11:21 AM 19.4 °F 10.4 °F 17.6 °F 93% 30.21 in 0.2 mi ENE 6.9 mph - N/A Fog Light Freezing Fog
11:36 AM 19.4 °F 11.5 °F 17.6 °F 93% 30.20 in 0.5 mi ENE 5.8 mph - N/A Fog Light Freezing Fog
11:56 AM 19.9 °F 11.1 °F 17.1 °F 89% 30.33 in 1.0 mi ENE 6.9 mph - N/A   Overcast
12:56 PM 19.9 °F 11.1 °F 18.0 °F 92% 30.31 in 1.2 mi ENE 6.9 mph - N/A   Overcast
1:22 PM 19.4 °F 10.4 °F 17.6 °F 93% 30.19 in 0.8 mi East 6.9 mph - N/A   Overcast
1:34 PM 21.2 °F 11.7 °F 17.6 °F 86% 30.20 in 1.0 mi ENE 8.1 mph - N/A   Overcast
1:56 PM 21.0 °F 13.4 °F 19.0 °F 92% 30.32 in 1.2 mi East 5.8 mph - N/A   Overcast
2:36 PM 21.2 °F 10.9 °F 17.6 °F 86% 30.19 in 0.8 mi ENE 9.2 mph - N/A   Overcast
2:56 PM 19.9 °F 10.1 °F 18.0 °F 92% 30.32 in 1.0 mi ENE 8.1 mph - N/A   Overcast
3:06 PM 19.4 °F 9.5 °F 17.6 °F 93% 30.19 in 0.5 mi ENE 8.1 mph - N/A Fog Light Freezing Fog
3:25 PM 19.4 °F 10.4 °F 17.6 °F 93% 30.19 in 0.2 mi East 6.9 mph - N/A Fog Light Freezing Fog
4:23 PM 19.4 °F 9.5 °F 17.6 °F 93% 30.19 in 1.0 mi East 8.1 mph - N/A   Overcast
4:56 PM 19.9 °F 9.3 °F 18.0 °F 92% 30.32 in 1.0 mi ESE 9.2 mph - 0.00 in Snow Light Snow
5:32 PM 19.4 °F 7.9 °F 17.6 °F 93% 30.19 in 0.8 mi ESE 10.4 mph - 0.00 in   Mist
5:46 PM 19.4 °F 7.9 °F 17.6 °F 93% 30.19 in 1.2 mi ESE 10.4 mph - 0.00 in   Overcast
5:56 PM 19.9 °F 8.6 °F 17.1 °F 89% 30.31 in 1.0 mi East 10.4 mph - 0.00 in   Overcast
6:32 PM 19.4 °F 9.5 °F 17.6 °F 93% 30.19 in 0.8 mi ESE 8.1 mph - N/A   Mist
6:56 PM 19.9 °F 8.6 °F 18.0 °F 92% 30.31 in 0.8 mi SE 10.4 mph - N/A   Mist
7:25 PM 19.4 °F 7.9 °F 17.6 °F 93% 30.18 in 1.2 mi SE 10.4 mph - N/A   Overcast
8:56 PM 19.9 °F 7.3 °F 18.0 °F 92% 30.31 in 0.8 mi SSE 12.7 mph - N/A   Overcast
9:03 PM 19.4 °F 7.9 °F 17.6 °F 93% 30.19 in 1.2 mi SE 10.4 mph - N/A   Overcast
9:56 PM 19.9 °F 8.6 °F 18.0 °F 92% 30.30 in 1.0 mi SE 10.4 mph - N/A   Overcast
10:39 PM 19.4 °F 7.9 °F 17.6 °F 93% 30.17 in 2.0 mi SSE 10.4 mph - N/A   Overcast
10:48 PM 19.4 °F 7.9 °F 17.6 °F 93% 30.17 in 1.2 mi SSE 10.4 mph - N/A   Overcast
10:56 PM 19.9 °F 9.3 °F 18.0 °F 92% 30.29 in 1.2 mi SE 9.2 mph - N/A   Overcast
11:51 PM 19.4 °F 7.2 °F 17.6 °F 93% 30.16 in 3.0 mi SE 11.5 mph - N/A   Overcast
11:56 PM 19.0 °F 6.8 °F 17.1 °F 92% 30.29 in 4.0 mi SSE 11.5 mph - N/A   Overcast